Tracking 28096 objects as of 27-Sep-2023
HD Live streaming from Space Station
objects crossing your sky now

KSF1-D

Track KSF1-D now!
10-day predictions


NORAD ID: 48950
Int'l Code: 2021-059BZ
Perigee: 393.5 km
Apogee: 410.1 km
Inclination: 97.6 °
Period: 92.5 minutes
Semi major axis: 6772 km
RCS: Unknown
Launch date: June 30, 2021
Source: Luxembourg (LUXE)
Launch site: AIR FORCE EASTERN TEST RANGE (AFETR)
Your satellite tracking list
Your tracking list is empty




NASA's NSSDC Master Catalog

Two Line Element Set (TLE):
1 48950U 21059BZ  23270.48552477  .00150613  00000-0  20032-2 0  9994
2 48950  97.5980  57.5163 0012307 246.0074 113.9893 15.57579953125557
Source of the keplerian elements: AFSPC